Weather History for Wildwood, NJ

Change the Weather History Date:

Saturday, July 5, 2014

  Actual Average Record
Temperature  
Mean Temperature 72 °F -  
Max Temperature 80 °F 80 °F 96 °F (1999)
Min Temperature 64 °F 65 °F 64 °F (2014)
Cooling Degree Days 7    
Growing Degree Days 22 (Base 50)    
Moisture  
Dew Point 50 °F    
Average Humidity 49    
Maximum Humidity 77    
Minimum Humidity 32    
Precipitation  
Precipitation 0.00 in - - ()
Sea Level Pressure  
Sea Level Pressure 30.18 in    
Wind  
Wind Speed 9 mph (WNW)    
Max Wind Speed 16 mph    
Max Gust Speed 23 mph    
Visibility 10 miles    
Events      
Averages and records for this station are not official NWS values.
T = Trace of Precipitation, MM = Missing Value Source: NWS Daily Summary

Daily Weather History Graph

Daily Weather History Graph

Search for Another Location

Airport:

Trip Planner

Search our weather history database for the weather conditions in past years. The results will help you decide how hot, cold, wet, or windy it might be!

Date:

Astronomy

Jul. 05, 2014 Rise Set
Actual Time 5:39 AM EDT 8:28 PM EDT
Civil Twilight 5:07 AM EDT 9:00 PM EDT
Nautical Twilight 4:27 AM EDT 9:40 PM EDT
Astronomical Twilight 3:42 AM EDT 10:25 PM EDT
Moon 1:27 PM EDT (7/5) 12:23 AM EDT (7/5)
Length of Visible Light 15h 52m
Length of Day
14h 48m
First Quarter, 52% of the Moon is Illuminated
Jul 5
First Quarter
Jul 12
Full
Jul 18
Last Quarter
Jul 26
New
Aug 3
First Quarter

Hourly Weather History & Observations

Time (EDT) Temp. Dew Point Humidity Pressure Visibility Wind Dir Wind Speed Gust Speed Precip Events Conditions
12:15 AM 69.8 °F 48.2 °F 46% 30.12 in 10.0 mi NW 12.7 mph 19.6 mph N/A   Clear
12:35 AM 69.8 °F 48.2 °F 46% 30.12 in 10.0 mi NW 10.4 mph 17.3 mph N/A   Clear
12:55 AM 69.8 °F 48.2 °F 46% 30.12 in 10.0 mi NNW 11.5 mph 17.3 mph N/A   Clear
1:15 AM 69.8 °F 48.2 °F 46% 30.13 in 10.0 mi NW 10.4 mph 23.0 mph N/A   Clear
1:35 AM 69.8 °F 46.4 °F 43% 30.13 in 10.0 mi NW 11.5 mph 19.6 mph N/A   Clear
1:55 AM 69.8 °F 46.4 °F 43% 30.13 in 10.0 mi NW 11.5 mph 18.4 mph N/A   Clear
2:15 AM 69.8 °F 46.4 °F 43% 30.13 in 10.0 mi NW 11.5 mph 20.7 mph N/A   Clear
2:35 AM 69.8 °F 46.4 °F 43% 30.13 in 10.0 mi NW 10.4 mph 21.9 mph N/A   Clear
2:55 AM 68.0 °F 48.2 °F 49% 30.13 in 10.0 mi NW 12.7 mph 23.0 mph N/A   Clear
3:15 AM 68.0 °F 46.4 °F 46% 30.13 in 10.0 mi NW 11.5 mph 20.7 mph N/A   Clear
3:35 AM 68.0 °F 48.2 °F 49% 30.13 in 10.0 mi NNW 9.2 mph 18.4 mph N/A   Clear
3:55 AM 68.0 °F 46.4 °F 46% 30.14 in 10.0 mi NW 11.5 mph 20.7 mph N/A   Clear
4:15 AM 66.2 °F 48.2 °F 52% 30.14 in 10.0 mi NW 9.2 mph 17.3 mph N/A   Clear
4:35 AM 66.2 °F 48.2 °F 52% 30.15 in 10.0 mi NNW 8.1 mph 17.3 mph N/A   Clear
4:55 AM 66.2 °F 48.2 °F 52% 30.15 in 10.0 mi NNW 9.2 mph 20.7 mph N/A   Clear
5:15 AM 66.2 °F 48.2 °F 52% 30.15 in 10.0 mi NNW 9.2 mph 18.4 mph N/A   Clear
5:35 AM 64.4 °F 48.2 °F 56% 30.15 in 10.0 mi NNW 11.5 mph - N/A   Clear
5:55 AM 64.4 °F 48.2 °F 56% 30.16 in 10.0 mi NNW 10.4 mph 16.1 mph N/A   Clear
6:15 AM 66.2 °F 48.2 °F 52% 30.17 in 10.0 mi NNW 9.2 mph 17.3 mph N/A   Clear
6:35 AM 66.2 °F 50.0 °F 56% 30.18 in 10.0 mi NW 9.2 mph - N/A   Clear
6:55 AM 66.2 °F 50.0 °F 56% 30.19 in 10.0 mi NW 8.1 mph - N/A   Clear
7:15 AM 66.2 °F 51.8 °F 60% 30.19 in 10.0 mi NNW 10.4 mph 16.1 mph N/A   Clear
7:35 AM 66.2 °F 51.8 °F 60% 30.20 in 10.0 mi NNW 9.2 mph - N/A   Clear
7:55 AM 68.0 °F 50.0 °F 52% 30.21 in 10.0 mi NNW 9.2 mph - N/A   Clear
8:15 AM 68.0 °F 50.0 °F 52% 30.21 in 10.0 mi NNW 10.4 mph 16.1 mph N/A   Clear
8:35 AM 69.8 °F 50.0 °F 49% 30.22 in 10.0 mi NNW 10.4 mph - N/A   Clear
8:55 AM 69.8 °F 50.0 °F 49% 30.22 in 10.0 mi NW 8.1 mph - N/A   Clear
9:15 AM 71.6 °F 50.0 °F 46% 30.22 in 10.0 mi NW 11.5 mph - N/A   Clear
9:35 AM 71.6 °F 50.0 °F 46% 30.23 in 10.0 mi NW 6.9 mph - N/A   Clear
9:55 AM 71.6 °F 51.8 °F 50% 30.23 in 10.0 mi NW 9.2 mph - N/A   Clear
10:15 AM 73.4 °F 51.8 °F 47% 30.23 in 10.0 mi NNW 5.8 mph - N/A   Clear
10:35 AM 73.4 °F 51.8 °F 47% 30.23 in 10.0 mi NNW 9.2 mph - N/A   Clear
10:55 AM 73.4 °F 50.0 °F 44% 30.22 in 10.0 mi NW 10.4 mph - N/A   Clear
11:15 AM 75.2 °F 50.0 °F 41% 30.22 in 10.0 mi NW 8.1 mph - N/A   Clear
11:35 AM 75.2 °F 50.0 °F 41% 30.23 in 10.0 mi NW 6.9 mph 16.1 mph N/A   Clear
11:55 AM 75.2 °F 48.2 °F 38% 30.22 in 10.0 mi WNW 9.2 mph - N/A   Clear
12:15 PM 77.0 °F 50.0 °F 39% 30.22 in 10.0 mi NW 9.2 mph - N/A   Clear
12:35 PM 77.0 °F 50.0 °F 39% 30.22 in 10.0 mi NW 5.8 mph - N/A   Clear
12:55 PM 77.0 °F 48.2 °F 36% 30.21 in 10.0 mi West 8.1 mph - N/A   Clear
1:15 PM 78.8 °F 51.8 °F 39% 30.21 in 10.0 mi West 12.7 mph - N/A   Clear
1:35 PM 77.0 °F 51.8 °F 41% 30.21 in 10.0 mi West 10.4 mph - N/A   Clear
1:55 PM 77.0 °F 51.8 °F 41% 30.21 in 10.0 mi West 9.2 mph - N/A   Clear
2:15 PM 78.8 °F 51.8 °F 39% 30.21 in 10.0 mi West 13.8 mph 18.4 mph N/A   Clear
2:35 PM 78.8 °F 48.2 °F 34% 30.20 in 10.0 mi West 13.8 mph 17.3 mph N/A   Clear
2:55 PM 78.8 °F 50.0 °F 36% 30.20 in 10.0 mi West 11.5 mph - N/A   Clear
3:15 PM 78.8 °F 48.2 °F 34% 30.20 in 10.0 mi West 16.1 mph 19.6 mph N/A   Clear
3:35 PM 78.8 °F 48.2 °F 34% 30.20 in 10.0 mi West 12.7 mph 18.4 mph N/A   Clear
4:15 PM 78.8 °F 48.2 °F 34% 30.20 in 10.0 mi West 10.4 mph - N/A   Clear
4:35 PM 78.8 °F 48.2 °F 34% 30.20 in 10.0 mi West 9.2 mph - N/A   Clear
4:55 PM 80.6 °F 48.2 °F 32% 30.19 in 10.0 mi West 11.5 mph - N/A   Clear
5:15 PM 78.8 °F 48.2 °F 34% 30.19 in 10.0 mi West 8.1 mph - N/A   Clear
5:35 PM 78.8 °F 48.2 °F 34% 30.18 in 10.0 mi West 9.2 mph - N/A   Clear
5:55 PM 78.8 °F 48.2 °F 34% 30.18 in 10.0 mi West 8.1 mph - N/A   Clear
6:15 PM 78.8 °F 48.2 °F 34% 30.18 in 10.0 mi WSW 6.9 mph - N/A   Clear
6:35 PM 78.8 °F 50.0 °F 36% 30.18 in 10.0 mi West 5.8 mph - N/A   Clear
6:55 PM 78.8 °F 50.0 °F 36% 30.18 in 10.0 mi WSW 4.6 mph - N/A   Clear
7:15 PM 77.0 °F 51.8 °F 41% 30.18 in 10.0 mi WSW 6.9 mph - N/A   Clear
7:35 PM 75.2 °F 51.8 °F 44% 30.18 in 10.0 mi WSW 5.8 mph - N/A   Clear
7:55 PM 75.2 °F 53.6 °F 47% 30.19 in 10.0 mi South 10.4 mph - N/A   Clear
8:15 PM 71.6 °F 55.4 °F 57% 30.19 in 10.0 mi SSW 5.8 mph - N/A   Clear
8:35 PM 69.8 °F 55.4 °F 60% 30.18 in 10.0 mi SSW 3.5 mph - N/A   Clear
8:55 PM 69.8 °F 57.2 °F 64% 30.18 in 10.0 mi South 3.5 mph - N/A   Clear
9:15 PM 66.2 °F 57.2 °F 73% 30.18 in 10.0 mi Calm Calm - N/A   Clear
9:35 PM 66.2 °F 57.2 °F 73% 30.19 in 9.0 mi Calm Calm - N/A   Clear
9:55 PM 64.4 °F 57.2 °F 77% 30.18 in 10.0 mi Calm Calm - N/A   Clear
10:15 PM 64.4 °F 57.2 °F 77% 30.19 in 10.0 mi Calm Calm - N/A   Clear
10:35 PM 64.4 °F 57.2 °F 77% 30.19 in 10.0 mi Calm Calm - N/A   Clear
10:55 PM 64.4 °F 57.2 °F 77% 30.18 in 10.0 mi Calm Calm - N/A   Clear
11:15 PM 64.4 °F 55.4 °F 73% 30.18 in 10.0 mi Calm Calm - N/A   Clear
11:35 PM 64.4 °F 55.4 °F 73% 30.19 in 10.0 mi Calm Calm - N/A   Clear
11:55 PM 64.4 °F 55.4 °F 73% 30.19 in 10.0 mi Calm Calm - N/A   Clear